Muscle Shoals, AL

3:48 PM CDT on September 26, 2017 (GMT -0500)
Northwest Alabama Regional

Weather History for KMSL - July, 2013

Change the Weather History Date:

Monday, July 29, 2013

  Actual Average Record
Temperature  
Mean Temperature 75 °F 81 °F  
Max Temperature 84 °F 91 °F 108 °F (1930)
Min Temperature 65 °F 70 °F 55 °F (1937)
Degree Days  
Heating Degree Days 0 0  
Month to date heating degree days 0 0  
Since 1 June heating degree days 0 1  
Since 1 July heating degree days 0 0  
Cooling Degree Days 10 16  
Month to date cooling degree days 393 450  
Year to date cooling degree days 1039 1056  
Since 1 June cooling degree days 799 812  
Growing Degree Days 25 (Base 50)    
Moisture  
Dew Point 60 °F    
Average Humidity 64    
Maximum Humidity 87    
Minimum Humidity 40    
Precipitation  
Precipitation 0.00 in 0.11 in 2.17 in (1898)
Month to date precipitation 5.88 4.07  
Year to date precipitation 35.47 32.33  
Snow  
Snow 0.00 in - - ()
Month to date snowfall 0.0  
Since 1 June snowfall 0.0  
Since 1 July snowfall 0.0  
Snow Depth 0.00 in    
Sea Level Pressure  
Sea Level Pressure 30.14 in    
Wind  
Wind Speed 2 mph (ENE)    
Max Wind Speed 8 mph    
Max Gust Speed 21 mph    
Visibility 10 miles    
Events      
T = Trace of Precipitation, MM = Missing Value Source: NWS Daily Summary

Daily Weather History Graph

Daily Weather History Graph

Search for Another Location

Airport or City:

Trip Planner

Search our weather history database for the weather conditions in past years. The results will help you decide how hot, cold, wet, or windy it might be!

Date:

Astronomy

Jul. 29, 2013 Rise Set
Actual Time 5:58 AM CDT 7:55 PM CDT
Civil Twilight 5:30 AM CDT 8:22 PM CDT
Nautical Twilight 4:56 AM CDT 8:56 PM CDT
Astronomical Twilight 4:20 AM CDT 9:32 PM CDT
Moon No Moon Rise 1:18 PM CDT (7/29)
Length of Visible Light 14h 52m
Length of Day
13h 56m
Waning Gibbous, 50% of the Moon is Illuminated
Jul 29
Waning Gibbous
Jul 29
Last Quarter
Aug 6
New
Aug 14
First Quarter
Aug 20
Full

Hourly Weather History & Observations

Time (CDT) Temp. Heat Index Dew Point Humidity Pressure Visibility Wind Dir Wind Speed Gust Speed Precip Events Conditions
12:53 AM 69.1 °F - 62.1 °F 78% 30.09 in 10.0 mi Calm Calm - N/A   Clear
1:53 AM 66.9 °F - 63.0 °F 87% 30.09 in 10.0 mi Calm Calm - N/A   Clear
2:53 AM 66.9 °F - 62.1 °F 84% 30.07 in 10.0 mi East 4.6 mph - N/A   Clear
3:53 AM 68.0 °F - 60.1 °F 76% 30.08 in 10.0 mi Calm Calm - N/A   Clear
4:53 AM 66.9 °F - 62.1 °F 84% 30.10 in 10.0 mi Calm Calm - N/A   Clear
5:53 AM 66.9 °F - 59.0 °F 76% 30.12 in 10.0 mi Calm Calm - N/A   Clear
6:53 AM 68.0 °F - 60.1 °F 76% 30.14 in 10.0 mi Calm Calm - N/A   Clear
7:53 AM 70.0 °F - 60.1 °F 71% 30.16 in 10.0 mi Calm Calm - N/A   Partly Cloudy
8:53 AM 73.0 °F - 57.9 °F 59% 30.17 in 10.0 mi ENE 3.5 mph - N/A   Clear
9:53 AM 77.0 °F - 60.1 °F 56% 30.18 in 10.0 mi Variable 3.5 mph - N/A   Clear
10:53 AM 77.0 °F - 57.9 °F 52% 30.18 in 10.0 mi East 5.8 mph - N/A   Clear
11:53 AM 80.1 °F 80.7 °F 59.0 °F 48% 30.17 in 10.0 mi East 5.8 mph - N/A   Clear
12:53 PM 79.0 °F - 57.9 °F 48% 30.17 in 10.0 mi Variable 4.6 mph - N/A   Clear
1:53 PM 81.0 °F 80.7 °F 55.0 °F 41% 30.17 in 10.0 mi NE 5.8 mph - N/A   Clear
2:53 PM 84.0 °F 83.8 °F 59.0 °F 43% 30.15 in 10.0 mi Variable 4.6 mph - N/A   Clear
3:53 PM 82.9 °F 83.2 °F 60.1 °F 46% 30.14 in 10.0 mi NNE 3.5 mph - N/A   Clear
4:53 PM 82.0 °F 81.6 °F 55.9 °F 41% 30.14 in 10.0 mi ENE 6.9 mph - N/A   Clear
5:53 PM 82.0 °F 82.7 °F 61.0 °F 49% 30.14 in 10.0 mi Calm Calm - N/A   Clear
6:53 PM 79.0 °F - 61.0 °F 54% 30.14 in 10.0 mi East 3.5 mph - N/A   Clear
7:53 PM 73.9 °F - 63.0 °F 68% 30.14 in 10.0 mi Calm Calm - N/A   Clear
8:53 PM 70.0 °F - 62.1 °F 76% 30.16 in 10.0 mi Calm Calm - N/A   Clear
9:53 PM 71.1 °F - 61.0 °F 70% 30.17 in 10.0 mi ENE 3.5 mph - N/A   Clear
10:53 PM 68.0 °F - 62.1 °F 81% 30.17 in 10.0 mi Calm Calm - N/A   Clear
11:53 PM 66.0 °F - 61.0 °F 84% 30.17 in 10.0 mi Calm Calm - N/A   Clear